Regional Weather Roundup
Issued by NWS Charleston, SC

Current Version | Previous Version | Text Only | Print | Product List | Glossary Off
Versions: 1 2 3 4 5 6 7 8 9 10 11 12 13 14 15 16 17 18 19 20 21 22 23 24 25 26 27 28 29 30 31 32 33 34 35 36 37 38 39 40 41 42 43 44 45 46 47 48 49 50

000
ASUS42 KCHS 311025
RWRCHS

REGIONAL WEATHER ROUNDUP
NATIONAL WEATHER SERVICE CHARLESTON SC
600 AM EDT THU JUL 31 2014

NOTE: "FAIR" INDICATES FEW OR NO CLOUDS BELOW 12,000 FEET WITH NO
SIGNIFICANT WEATHER AND/OR OBSTRUCTIONS TO VISIBILITY.

NOT ALL STATIONS ARE QUALITY CONTROLLED BY THE NATIONAL
WEATHER SERVICE. USE DATA WITH CAUTION...ESPECIALLY
DEWPOINT OBSERVATIONS.

SCZ027-030-031-034>040-042>050-311100-
...SOUTH CAROLINA...

CITY           SKY/WX    TMP DP  RH WIND       PRES   REMARKS
N CHARLESTON   MOCLDY    77  71  82 NE7       30.01S
WATERFRONT PRK   N/A     81 N/A N/A NE8         N/A
FORT JOHNSON   NOT AVBL
MOUNT PLEASANT NOT AVBL
JOHNS ISLAND   NOT AVBL
PINOPOLIS        N/A     77  72  83 E8        29.95R
MONCKS CORNER  NOT AVBL
SUMMERVILLE    CLOUDY    73  72  94 CALM      30.03R
BEAUFORT MCAS  PTCLDY    76  73  91 NE7       29.99R
BEAUFORT ARPT  LGT RAIN  77  77 100 N3        29.98S
HILTON HEAD IS NOT AVBL
GEORGETOWN     NOT AVBL
WALTERBORO     CLOUDY    73 N/A N/A CALM      30.02S
ORANGEBURG     CLOUDY    72  67  84 NE6       30.03S
BARNWELL       PTSUNNY   72  72 100 NE7       30.03S
AIKEN          NOT AVBL
MANNING        NOT AVBL
KINGSTREE      NOT AVBL
COLUMBIA       CLOUDY    73  66  78 CALM      30.04S
SUMTER         CLOUDY    69  68  96 NE5       30.04R
FLORENCE       CLOUDY    71  66  84 NE8       30.06R
MYRTLE BEACH   NOT AVBL
N MYRTLE BEACH MOCLDY    71  67  87 N5        30.04S

$$

GAZ063-065-086>088-099>101-113>116-118-119-134-136>141-150-311100-
...GEORGIA...

CITY           SKY/WX    TMP DP  RH WIND       PRES   REMARKS
SAVANNAH ARPT  MOCLDY    75  71  87 N7        29.98R
HUNTER AAF     PTCLDY    75  73  93 NE8       29.95S
FORT STEWART   MOCLDY    73  72  94 N3        29.97R
STATESBORO     NOT AVBL
SYLVANIA       CLOUDY    74  73  98 E3        30.01S
CLAXTON        FAIR     N/A N/A N/A CALM      29.99R FOG
THOMSON        CLOUDY    72  72 100 CALM      30.08S
AUGUSTA-BUSH   MOCLDY    72  69  90 CALM      30.02S
AUGUSTA-DANIEL PTCLDY    74  68  81 NE6       30.03S
SWAINSBORO     PTSUNNY   72  72 100 NE3       30.02R
VIDALIA          N/A     72  70  94 N3        30.00R
ALMA           PTCLDY    72  70  93 CALM      29.97R
WAYCROSS       PTCLDY    74  74 100 CALM      29.97S FOG
JESUP          FAIR      77  73  88 CALM      29.97S
BRUNSWICK      CLEAR     73  70  88 CALM      29.97R
SAINT SIMONS   CLEAR     76  74  93 W3        29.95R

$$

SCZ027-028-034-036>038-045-046-048>050-GAZ119-141-311100-
...LAKE AND SUPPLEMENTAL COASTAL OBSERVATIONS...

STATION/POSITION TIME  TEMP    WIND        PRES    WAVE   SWELL
                       AIR SEA DIR/SP/G            HT/PER HT/PER/DIR
                 (UTC) (F)     (DEG/KT/KT) (MB)    (FT/S) (FT/S/D)
UPR LAKE MARION  NOT AVBL
WINYAH BAY       1000   80      90/  6     1016.0S
LAKE MURRAY      1000   72      50/  2/  4 1016.9F
ACE BASIN NERRS  1000   76      10/  2     1015.0S
FORT PULASKI     1000   83     100/  9/ 12 1015.1R
SAPELO ISLAND    1000   77     110/  3     1014.0S

$$

ANZ835-935-AMZ111-154-330-350-352-354-374-450-454-472-311100-
...C-MAN AND BUOY OBSERVATIONS...

STATION/POSITION TIME  TEMP    WIND        PRES    WAVE   SWELL
                       AIR SEA DIR/SP/G            HT/PER HT/PER/DIR
                 (UTC) (F)     (DEG/KT/KT) (MB)    (FT/S) (FT/S/D)
FOLLY BEACH CMAN 1000   81      70/ 13/ 15 1016.4R
BUOY 41004       1000   82 83   80/ 14/ 14 1015.3R   3/ 5   2/ 8
BUOY 41008       1000   82 85  160/ 10/ 12 1014.4R   3/ 5   2/100/ 5
5E ST. MARYS GA  1000      85                N/A     2/ 5
FRYING PAN BUOY  NOT AVBL
BUOY 41025       1000          VRB 10/ 14  1018.3R   3/ 6   3/ 90/ 6
CAPE LOOKOUT NC  1000   79      90/  9/ 11 1018.3R
BUOY 41002       0904   80 80   30/  4/  6 1016.9R   4/ 7   3/110/ 7
BUOY 41010       1000   83 84  190/ 12/ 12 1014.8S   2/ 8   2/110/ 8
BUOY 41012       NOT AVBL
ST AUGUSTINE FL  1000   76     280/  4/  4 1015.2R
CAPERS NEARSHORE 0900   81     100/ 12/ 14   N/A
FRIPP NEARSHORE  NOT AVBL


$$



USA.gov is the U.S. government's official web portal to all federal, state and local government web resources and services.